カタログに戻る

SL-8 R/B

運用中PO
NORAD 8421·ROCKET BODY·🇷🇺 Russia

打ち上げ Nov 4, 1975 から Plesetsk Cosmodrome

Loading…

次のパス (今後24時間)

TLE

最新Source: Space-Track

元期: Sep 14, 2026, 04:36 UTC

1 08421U 75103B   26257.19197118  .00000079  00000-0  64252-4 0  9999
2 08421  82.9772 180.1354 0023820 141.9482  22.8058 13.77105019553369

AllMySatでSL-8 R/Bをリアルタイム追跡

Download on the App Store